INMARSAT 2-F
1 21149U 91018A   03106.41939809 -.00000141  00000-0  10000-3 0  7987
2 21149   1.7060  32.7765 0003944 358.4555 225.9108  1.00271928 44362
ANIK E2 
1 21222U 91026A   03106.47017159 -.00000055  00000-0  10000-3 0  1853
2 21222   0.0846  80.6225 0002019 282.8269 258.9165  1.00272598 33119
SPACENET 4 A
1 21227U 91028A   03104.55987571 -.00000010  00000-0  10000-3 0  2415
2 21227   0.0292 153.3556 0003215 165.8625 256.6588  1.00273297 42020
TDRS 5 
1 21639U 91054B   03105.35325022  .00000082  00000-0  10000-3 0   288
2 21639   4.4079  79.4374 0001732 301.0542 135.4374  1.00271903 42858
INTELSAT 605
1 21653U 91055A   03105.79436133  .00000137  00000-0  00000+0 0  7585
2 21653   0.0103 150.2666 0001104 199.4541 157.5816  1.00908142 42710
ANIK E1 
1 21726U 91067A   03105.25610520 -.00000006  00000-0  10000-3 0   791
2 21726   0.0601 103.0025 0002330 292.5053 141.0188  1.00274017 33261
INTELSAT 601
1 21765U 91075A   03105.59923903  .00000009  00000-0  00000+0 0  6133
2 21765   0.0396 126.0767 0002748 315.0963  42.1152  1.00273952 41816
EUTELSAT 2-F
1 21803U 91083A   03100.97370786  .00000131  00000-0  10000-3 0  5407
2 21803   2.7263  88.4685 0005021 314.8676 167.6969  1.00278046 37516
TELECOM 2A 
1 21813U 91084A   03105.98733428  .00000016  00000-0  00000+0 0  1033
2 21813   1.6101  91.8383 0004469 283.3860 186.9648  1.00274440 40313
INMARSAT 2-F
1 21814U 91084B   03104.46872057  .00000108  00000-0  10000-3 0  6489
2 21814   1.8563  59.7055 0002459 320.8656 208.4140  1.00275522 41448
INSAT 2DR 
1 21894U 92010B   03101.95344201  .00000082  00000-0  10000-3 0  6068
2 21894   0.2929  99.5804 0007236 276.6183 221.9000  1.00274615 40592
GALAXY 5 
1 21906U 92013A   03106.47755427  .00000032  00000-0  10000-3 0  9139
2 21906   0.0198 177.5093 0001406 199.7168 233.8619  1.00273046 32316
GORIZONT 25 
1 21922U 92017A   03106.17039258 -.00000285  00000-0  00000+0 0  7454
2 21922   6.8111  60.7577 0002550 355.3914 349.3745  1.00266307 40373
TELECOM 2B 
1 21939U 92021A   03104.98852294  .00000126  00000-0  10000-3 0  6375
2 21939   2.1019  90.2533 0004293 302.3796 212.9526  1.00274090 33117
INMARSAT 2-F
1 21940U 92021B   03105.69487797 -.00000356  00000-0  10000-3 0  5889
2 21940   2.4167  21.9639 0002247 353.4247 187.1768  1.00267799 40240
PALAPA B4 
1 21964U 92027A   03105.73785068 -.00000368  00000-0  10000-3 0  3238
2 21964   0.0690  30.6104 0000375 285.3188 271.1458  1.00266731 39908
EUTELSAT 2-F
1 22028U 92041B   03101.61434586 -.00000100  00000-0  10000-3 0  3408
2 22028   1.8465  91.8163 0006279 279.8767  36.5332  1.00271972 32295
GORIZONT 26 
1 22041U 92043A   03106.65333126 -.00000125  00000-0  00000+0 0  4562
2 22041   6.5550  62.1133 0002390 351.5005  11.3131  1.00266579 39368
OPTUS B1 AUS
1 22087U 92054A   03102.41340473 -.00000113  00000-0  10000-3 0  7911
2 22087   0.0155 170.6557 0004040 121.5670 216.8475  1.00272107 50517
SATCOM C4 
1 22096U 92057A   03105.72027010  .00000083  00000-0  00000+0 0   801
2 22096   0.0397 145.4093 0003340 278.7619 263.5884  1.00274165 40934
HISPASAT 1A 
1 22116U 92060A   03105.95532917 -.00000052  00000-0  00000+0 0  3888
2 22116   0.4782  96.1048 0000850 123.4538 318.1307  1.00451471 35433
SATCOM C3 
1 22117U 92060B   03105.60865067  .00000063  00000-0  10000-3 0  8843
2 22117   0.0669  75.6140 0003226 352.4333 223.5439  1.00275283 38765
DFS 3 
1 22175U 92066A   03105.91182049 -.00000174  00000-0  00000+0 0  5564
2 22175   1.1705  92.7103 0005222 261.4570  99.4831  0.99728185 36193
GORIZONT 27 
1 22245U 92082A   03104.99067640  .00000100  00000-0  00000+0 0  4394
2 22245   6.3555  64.3215 0003034 353.8156 157.9033  1.00268672 42346
SUPERBIRD A1
1 22253U 92084A   03105.63318479 -.00000134  00000-0  10000-3 0  6256
2 22253   0.0780  89.4146 0003568 269.8088 230.1001  1.00271287 37685
COSMOS 2224 
1 22269U 92088A   03105.32937938 -.00000319  00000-0  00000+0 0  9567
2 22269   5.3849  65.9280 0005471 351.7821   8.3214  1.00169430 37301
TDRS F6 
1 22314U 93003B   03100.89271766 -.00000277  00000-0  10000-3 0  4791
2 22314   3.6640  83.9760 0002704 298.6190  90.3902  1.00266223 37537
RADUGA 29 
1 22557U 93013A   03104.90315289  .00000079  00000-0  00000+0 0  2495
2 22557   6.1157  66.1618 0002362 330.2261 143.7423  1.00287108 36810
ASTRA 1C 
1 22653U 93031A   03099.00000000  .00000122  00000-0  10000-3 0  7958
2 22653   0.0122 319.8851 0002995  65.1991 190.8927  1.00273184 31383
HISPASAT 1B 
1 22723U 93048A   03103.22889065 -.00000220  00000-0  00000+0 0  1230
2 22723   0.0221 239.1166 0001061  37.9261 336.3555  1.00273013 35350
INSAT 2B 
1 22724U 93048B   03104.59880367 -.00000357  00000-0  10000-3 0  3539
2 22724   2.2500  89.9368 0003057 305.8558 133.6482  1.00269797 35950
ACTS 
1 22796U 93058B   03106.35532850 -.00000091  00000-0  00000+0 0  7822
2 22796   3.9158  82.3250 0005603 314.4044 190.0518  1.00272080 42042
RADUGA 30 
1 22836U 93062A   03105.69143806 -.00000038  00000-0  00000-0 0  3421
2 22836   5.7504  68.3048 0003938 351.5423 101.9862  1.00263445 34918
INTELSAT 701
1 22871U 93066A   03105.23133625  .00000048  00000-0  10000-3 0  2098
2 22871   0.0136 275.0719 0003031  98.9601  92.2130  1.00272570 34607
GORIZONT 28 
1 22880U 93069A   03106.43296786 -.00000287  00000-0  00000+0 0  3353
2 22880   5.7168  68.3395 0001370   7.3285  21.1230  1.00273491 34675
SOLIDARIDAD 
1 22911U 93073A   03104.99112514 -.00000066  00000-0  10000-3 0  4405
2 22911   2.2418  90.0646 0004622 337.0976  23.3653  1.00274463 33047
METEOSAT 6 
1 22912U 93073B   03098.12548034  .00000070  00000-0  00000+0 0  7539
2 22912   2.7947  82.2728 0001973 316.4299 212.0732  1.00280227 32789
NATO 4B 
1 22921U 93076A   03104.91609521 -.00000163  00000-0  00000+0 0  2984
2 22921   2.7439  56.6880 0003274 318.3906 137.1556  1.00269989 34348
DBS 
1 22930U 93078A   03106.36744925 -.00000063  00000-0  00000+0 0  4616
2 22930   0.0235 167.9184 0002306 206.4306 212.2203  1.00271678 42017
THAICOM 1 
1 22931U 93078B   03105.80226572 -.00000367  00000-0  00000+0 0  2219
2 22931   0.0909  57.8259 0001929 165.5832  28.8925  1.00266788 33710
GALAXY 1R 
1 23016U 94013A   03105.61104913  .00000074  00000-0  10000-3 0  3600
2 23016   0.0311 155.9662 0001158 228.7299 265.6537  1.00274588 33125
GOES 8 
1 23051U 94022A   03106.29510649 -.00000250  00000-0  00000+0 0  6910
2 23051   0.4379  99.8910 0004050 326.3720 168.4327  1.00258977 40378
INTELSAT 702
1 23124U 94034A   03101.98047219  .00000083  00000-0  00000+0 0  1573
2 23124   0.0105 165.2996 0000097 223.2426 219.1587  1.00270403 46487
PAS 2 
1 23175U 94040A   03105.60208861 -.00000035  00000-0  00000+0 0  2895
2 23175   0.0112 199.6753 0005394 214.0418 175.3841  1.00274229 31421
BS-3N 
1 23176U 94040B   03105.46512211  .00000000  00000-0  10000-3 0  9698
2 23176   0.0610  95.8659 0004951  65.3765 319.3242  1.00266521 31934
APSTAR 1 
1 23185U 94043A   03106.39643443 -.00000298  00000-0  00000+0 0  4450
2 23185   0.0261 116.4690 0001054 257.2515 111.1411  1.00271764 31983
DIRECTV 2 
1 23192U 94047A   03106.26403998 -.00000121  00000-0  00000+0 0  2843
2 23192   0.0270 169.1226 0002428 215.9891 173.1865  1.00272519 41953
BRASILSAT B1
1 23199U 94049A   03106.27362078 -.00000270  00000-0  10000-3 0  1968
2 23199   0.0398 158.0432 0001604 239.3998 195.1031  1.00271464 42677
TURKSAT 1B 
1 23200U 94049B   03105.78448057  .00000150  00000-0  00000+0 0  9204
2 23200   0.0052 192.4561 0000415 181.2066 143.5734  1.00275706 31287
OPTUS B3 
1 23227U 94055A   03104.62601340 -.00000152  00000-0  10000-3 0  1758
2 23227   0.0150 170.0289 0003374 203.6390 210.0846  1.00272095 31585
NSS 703 
1 23305U 94064A   03105.91116635  .00000066  00000-0  10000-3 0  8565
2 23305   0.0429 121.5538 0004853 285.6181 181.4785  1.00273934 31328
SOLIDARIDAD 
1 23313U 94065A   03105.40748025 -.00000043  00000-0  10000-3 0  2518
2 23313   0.0152 180.3196 0002244 205.1083 211.4439  1.00273675 31189
THAICOM 2 
1 23314U 94065B   03105.69004850 -.00000126  00000-0  10000-3 0  9914
2 23314   0.0834  71.1129 0002028 267.8351 191.4015  1.00271963 31166
EXPRESS 1 
1 23319U 94067A   03104.06890171  .00000116  00000-0  00000+0 0  8732
2 23319   2.4293  88.4943 0004597 334.6819  25.7244  0.99823001 31094
ASTRA 1D 
1 23331U 94070A   03104.03448366  .00000135  00000-0  10000-3 0  8334
2 23331   0.0609 174.6630 0002299 194.8484 228.9262  1.00275169 31417
ORION 1 
1 23413U 94079A   03104.24939998 -.00000255  00000-0  00000-0 0  9008
2 23413   0.0466  66.3732 0001744 337.0420 210.8883  1.00271537 30259
RADUGA 32 
1 23448U 94087A   03102.44010173 -.00000096  00000-0  10000-3 0  3977
2 23448   4.9272  73.9934 0004713  21.7407 338.3993  1.00283901 48046
INTELSAT 704
1 23461U 95001A   03105.91889671 -.00000007  00000-0  10000-3 0  9126
2 23461   0.0153 181.4227 0003802 209.5228 209.5661  1.00273427 30292
GMS 5 
1 23522U 95011B   03106.17271492 -.00000283  00000-0  00000+0 0  1909
2 23522   1.8895  83.7146 0000672 256.1225  66.2132  1.00280750 29457
INTELSAT 705
1 23528U 95013A   03105.86199164 -.00000287  00000-0  00000+0 0  1305
2 23528   0.0159 251.7337 0002947 162.6114  49.5789  1.00270495 29470
BRASILSAT B2
1 23536U 95016A   03106.39184653 -.00000281  00000-0  10000-3 0   660
2 23536   0.0339 210.9179 0001380 193.3856 235.8537  1.00268812 29543
HOT BIRD 1 
1 23537U 95016B   03099.84635997  .00000088  00000-0  10000-3 0  5405
2 23537   0.0227 231.2698 0003930 159.6337 124.4056  1.00270936 29475
AMSC 1 
1 23553U 95019A   03105.84388681 -.00000120  00000-0  00000+0 0  1891
2 23553   0.0168 183.0077 0002006 209.1072  14.3339  1.00272810 29353
